This is the latest recevied weather packets stored in our database for station/object KC8P. If no packets are shown the sender has not sent any weather packets the latest 10 day(s).
| Time | Temp. | Humidity | Pressure | Rain* | Wind** | Luminosity | Snow |
|---|---|---|---|---|---|---|---|
| 1778263325 | 16.67° C | 35% | 1009.6 hPa | 0 mm | - | 710 W/m² | - |
| 1778263264 | 16.67° C | 36% | 1009.6 hPa | 0 mm | - | 733 W/m² | - |
| 1778263194 | 16.67° C | 35% | 1009.6 hPa | 0 mm | - | 747 W/m² | - |
| 1778263129 | 16.67° C | 35% | 1009.6 hPa | 0 mm | - | 699 W/m² | - |
| 1778263063 | 16.67° C | 36% | 1009.6 hPa | 0 mm | - | 673 W/m² | - |
| 1778262997 | 15.56° C | 37% | 1009.6 hPa | 0 mm | - | 702 W/m² | - |
| 1778262932 | 15.56° C | 36% | 1009.6 hPa | 0 mm | - | 730 W/m² | - |
| 1778262866 | 15.56° C | 36% | 1009.6 hPa | 0 mm | - | 724 W/m² | - |
| 1778262800 | 15.56° C | 35% | 1009.6 hPa | 0 mm | - | 734 W/m² | - |
| 1778262734 | 15.56° C | 37% | 1009.6 hPa | 0 mm | - | 747 W/m² | - |
| 1778262669 | 15.56° C | 35% | 1010 hPa | 0 mm | - | 757 W/m² | - |
| 1778262604 | 15.56° C | 36% | 1010 hPa | 0 mm | - | 747 W/m² | - |
| 1778262537 | 15.56° C | 36% | 1010 hPa | 0 mm | - | 720 W/m² | - |
| 1778262472 | 16.11° C | 35% | 1010 hPa | 0 mm | - | 723 W/m² | - |
| 1778262407 | 16.11° C | 36% | 1010.4 hPa | 0 mm | - | 724 W/m² | - |
| 1778262340 | 15.56° C | 37% | 1010.4 hPa | 0 mm | - | 711 W/m² | - |
| 1778262274 | 15° C | 38% | 1010 hPa | 0 mm | - | 717 W/m² | - |
| 1778262210 | 15° C | 35% | 1010.4 hPa | 0 mm | - | 724 W/m² | - |
| 1778262144 | 15° C | 37% | 1010.4 hPa | 0 mm | - | 721 W/m² | - |
| 1778262076 | 14.44° C | 37% | 1010.4 hPa | 0 mm | - | 709 W/m² | - |
| 1778262012 | 15° C | 36% | 1010.4 hPa | 0 mm | - | 715 W/m² | - |
| 1778261946 | 15.56° C | 36% | 1010 hPa | 0 mm | - | 720 W/m² | - |
| 1778261879 | 15.56° C | 35% | 1010 hPa | 0 mm | - | 724 W/m² | - |
| 1778261814 | 15.56° C | 37% | 1010.4 hPa | 0 mm | - | 732 W/m² | - |
| 1778261748 | 15.56° C | 37% | 1010.4 hPa | 0 mm | - | 732 W/m² | - |
* Rain latest hour (hover to see other rain measurements)
** Current wind speed in m/s (hover to see current wind gust speed)